Rbgn^[z[y[W
メイン
   新天体発見情報
     Comet P/2025 D2 (PANSTARRS)
投稿するにはまず登録を

スレッド表示 | 新しいものから 前のトピック | 次のトピック | 下へ
投稿者 スレッド
佐藤裕久
投稿日時: 2025-3-3 13:04
モデレータ
登録日: 2005-6-12
居住地: 日本
投稿: 2661
オンライン
Comet P/2025 D2 (PANSTARRS)

R. Weryk (西オンタリオ大学,物理および天文学科)の通報によると、2月22 日UT、Haleakala
にあるPan-STARRS2 1.8-m Ritchey-Chretien反射望遠鏡で得た画像からかすから彗星を発見し
た。4枚の45-秒w-バンドサーベイ画像は、ソフトな外観で1".5(半値全幅:FWHM)の頭部が見え
るが、尾はない。
WerykとR. Wainscoatが、2月23.52日UT、Maunaeaにある3.6-m Canada-France-Hawaii望遠鏡で、
0".9のシーイングで得た3枚の60-秒のgri-バンドフォローアップ画像では、拡散した1".2(FWHM)
のコマが見え、p.a. 30-110°にわたって約6"の広い尾がある。 

彗星機能の報告は次のとおり、

OC   Date        Reporter            Coma    Tail   PA   Comet     Date
                                                        (T/P)   Reported
G96  2025-02-19  D. Rankin           5".5                 T   2025-02-23.09
F52  2025-02-22  R. Weryk            0".5                 P   2025-02-22.78
T14  2025-02-23  R. Weryk            0".3      6"  30     T   2025-02-23.53

発見位置は次のとおり(PCCP P226VEQ)、

     2025 UT             R.A. (2000) Decl.       Mag.
     Feb. 22.32709    9 27 04.60   + 9 11 26.2   22.0
          22.33883    9 27 04.37   + 9 11 27.6   21.5
          22.36227    9 27 03.88   + 9 11 29.9   21.8

MPCの楕円軌道要素、位置推算表は次のとおり、

Orbital elements:
    P/2025 D2 (PANSTARRS)                                                       
Epoch 2025 May 5.0 TT = JDT 2460800.5                                           
T 2028 Jan. 15.28528 TT                                 Veres                   
q   7.2260338            (2000.0)            P               Q                  
n   0.03322091     Peri.  303.78665     -0.94220593     +0.32311330             
a   9.5835931      Node   255.20162     -0.26905646     -0.88727517             
e   0.2459995      Incl.    5.25654     -0.19964117     -0.32915129             
P  29.7                                                                         
From 13 observations 2025 Feb. 4-23, mean residual 0".3.                        
                                                                                
Ephemeris:
Date    TT    R. A. (2000) Decl.     Delta      r    Elong.  Phase   m1
2025 01 25    09 36 43.9 +08 28 26   7.0180  7.9528   160.5     2.4  21.4
...
2025 02 09    09 31 39.6 +08 49 39   6.9531  7.9350   174.0     0.7  21.4
...
2025 02 17    09 28 53.0 +09 02 34   6.9472  7.9256   171.4     1.1  21.4
...
2025 02 23    09 26 51.1 +09 12 34   6.9559  7.9186   165.8     1.8  21.4
2025 02 24    09 26 31.3 +09 14 15   6.9584  7.9174   164.7     1.9  21.4
2025 02 25    09 26 11.6 +09 15 55   6.9612  7.9162   163.7     2.0  21.4
...
2025 03 03    09 24 17.9 +09 25 54   6.9844  7.9092   157.5     2.8  21.4
...
2025 03 11    09 22 00.8 +09 38 44   7.0313  7.8999   149.1     3.7  21.4
...
2025 03 26    09 18 43.6 +09 59 50   7.1629  7.8826   133.5     5.3  21.4

(MPEC 2025-D149、CBET 5510)

スレッド表示 | 新しいものから 前のトピック | 次のトピック | トップ

投稿するにはまず登録を
 
© 1999 Tsutomu Seki.